Location: Unspecified
(0.0000°N, 0.0000°E)
Time: 23:22:13
(UTC+02:00)

Daily predictions for brighter satellites

Satellite Brightness Start Highest point End
(mag) Time Altitude Azimuth Time Altitude Azimuth Time Altitude Azimuth
CZ-4 R/B 4.3 20:27:44 10° SW 20:29:48 14° WSW 20:31:53 10° WNW
Cosmos 1378 3.7 20:28:13 10° SSE 20:31:44 37° E 20:35:12 10° NNE
Cosmos 1814 Rocket 4.2 20:27:40 10° NNW 20:32:59 82° WSW 20:38:15 10° S
Cosmos 2221 4.1 20:33:38 10° NE 20:36:18 16° E 20:38:58 10° SE
Cosmos 1777 Rocket 4.2 20:31:15 10° S 20:36:22 51° ESE 20:41:27 10° NNE
Cosmos-2242 4.4 20:32:52 10° NNW 20:36:51 41° W 20:40:53 10° SSW
Aurora 2 Rocket 4.3 20:33:49 10° NW 20:38:03 23° NNE 20:41:22 10° ENE
Helios 1B rocket 4.4 20:35:30 10° NNW 20:39:16 35° WNW 20:43:04 10° SW
Ariane H10-3 3.2 20:37:52 10° WNW 20:39:51 35° NNE 20:43:38 10° E
Cosmos 1842 Rocket 3.6 20:36:20 10° N 20:40:47 83° E 20:45:14 10° S
Cosmos 841 Rocket 3.8 20:36:42 10° N 20:41:42 48° ENE 20:46:41 10° SSE
Ariane H10 4.3 20:33:53 10° WNW 20:41:46 35° NNW 20:44:54 10° NE
COSMOS 2441 4.3 20:40:20 10° SSE 20:45:09 71° ENE 20:49:54 10° N
ERBS 3.2 20:43:26 10° S 20:46:34 29° ESE 20:49:40 10° ENE
Cosmos 1766 Rocket 3.5 20:42:09 10° S 20:46:36 73° E 20:51:00 10° N
MSX 3.8 20:42:00 10° SSE 20:47:46 86° ENE 20:53:31 10° N
Cosmos 1627 Rocket 4.5 20:49:40 10° S 20:55:49 89° E 21:02:01 10° N
NOSS 3-1 (A) 3.4 20:52:29 10° S 20:57:59 47° ESE 21:03:27 10° NE
Resurs 01 Rocket 2.1 20:53:51 10° SSE 20:58:00 41° ENE 21:02:10 10° N
Cosmos 2219 3.5 20:56:05 10° S 21:01:31 44° ESE 21:06:55 10° NE
NOAA 12 4.1 20:57:33 10° SSE 21:02:49 64° ENE 21:08:03 10° N
IDEFIX/ARIANE 42P 4.2 20:58:18 10° SSW 21:03:03 35° WSW 21:07:48 10° NW
Cosmos 1484 Rocket 4.1 21:06:55 10° S 21:10:32 39° W 21:14:12 10° NNW
FREGAT/IRIS 2.7 21:07:57 13° S 21:10:37 80° W 21:13:43 10° NNW
In-Cosmos 22 4.2 21:05:16 10° S 21:10:58 73° E 21:16:42 10° N
Cosmos 1763 Rocket 4.0 21:07:57 10° NNW 21:12:56 59° WSW 21:17:54 10° S
SJ-6B 4.0 21:11:52 10° S 21:15:42 44° WSW 21:19:37 10° NNW
ATLAS 2AS CENTAUR R/B 4.4 21:14:14 10° SSE 21:23:55 12° ENE 21:24:31 10° ENE
METEOR-M 4.2 21:15:51 19° SSE 21:19:34 56° ENE 21:24:46 10° N
Cosmos 540 Rocket 4.0 21:15:15 10° NNE 21:19:56 36° ENE 21:21:13 31° ESE
Resurs 1-3 3.6 21:18:28 26° SSE 21:20:50 60° ENE 21:25:08 10° N
Skynet4D Del rocket 4.1 21:20:17 10° SW 21:28:00 72° SSE 21:32:27 23° ENE
Meteor 1-16 Rocket 4.2 21:22:33 10° N 21:28:23 89° E 21:33:20 14° S
Ariane H10 4.1 21:26:09 10° WNW 21:30:38 58° NNE 21:48:24 16° E
Cosmos 2322 Rocket 3.6 21:26:59 10° NNE 21:30:20 20° ENE 21:30:20 20° ENE
Cosmos 1441 Rocket 4.0 21:31:01 10° SSW 21:34:46 52° W 21:38:27 10° N
CZ-4B DEB 2.9 21:36:20 72° N 21:36:20 72° N 21:39:20 10° N
Cosmos 1980 Rocket 2.1 21:32:25 10° NNW 21:38:06 89° ENE 21:40:49 33° SSE
Cosmos 1697 Rocket 3.8 21:37:22 10° NW 21:42:36 41° WSW 21:47:22 12° S
SL-16 R/B 3.4 21:39:16 10° NNE 21:42:45 25° NE 21:42:45 25° NE
ATLAS CENTAUR R/B 2.9 21:40:50 10° N 21:42:46 23° NNE 21:42:46 23° NNE
Cosmos 332 Rocket 3.7 21:44:26 10° N 21:49:05 65° ENE 21:49:05 65° ENE
GPS 2-15 Rocket1 3.0 21:45:02 10° WSW 21:49:29 72° SSW 21:49:29 72° SSW
BLOCK DM-SL R/B 3.6 21:55:18 10° W 21:59:44 90° ENE 22:01:48 50° E
Cosmos 1674 4.3 22:01:48 30° NNW 22:01:48 30° NNW 22:03:54 10° N
ALOS 2.8 22:01:34 51° N 22:01:34 51° N 22:05:06 10° N
SWIFT 4.4 22:02:23 10° NNW 22:04:40 19° N 22:04:40 19° N
Centaur D-1AR AC-40 3.8 21:32:54 10° WNW 22:07:44 47° SW 22:10:03 37° S
ARIANE 3 DEB 4.3 22:08:25 10° W 22:12:06 35° W 22:12:06 35° W
S3M 3.9 22:14:25 10° N 22:20:19 80° NW 22:20:19 80° NW
Ariane H10 4.2 22:17:19 10° W 22:55:26 79° SSW 22:55:26 79° SSW
ATLAS 2AS CENTAUR R/B 4.0 23:10:55 36° NW 23:10:55 36° NW 23:16:29 10° N
